Gwinn, MI

7:26 AM EDT on May 29, 2017 (GMT -0400)
Sawyer International

Weather History for KSAW - October, 2012

Change the Weather History Date:

Tuesday, October 30, 2012

  Actual Average (KESC) Record (KESC)
Temperature  
Mean Temperature 35 °F -  
Max Temperature 38 °F 50 °F 67 °F (1950)
Min Temperature 32 °F 35 °F 19 °F (1988)
Degree Days  
Heating Degree Days 30    
Moisture  
Dew Point 26 °F    
Average Humidity 70    
Maximum Humidity 93    
Minimum Humidity 49    
Precipitation  
Precipitation 0.00 in - - ()
Sea Level Pressure  
Sea Level Pressure 30.04 in    
Wind  
Wind Speed 23 mph (North)    
Max Wind Speed 31 mph    
Max Gust Speed 41 mph    
Visibility 8 miles    
Events Snow    
Averages and records for this station are not official NWS values.
T = Trace of Precipitation, MM = Missing Value Source: NWS Daily Summary

Daily Weather History Graph

Daily Weather History Graph

Search for Another Location

Airport or City:

Trip Planner

Search our weather history database for the weather conditions in past years. The results will help you decide how hot, cold, wet, or windy it might be!

Date:

Astronomy

Oct. 30, 2012 Rise Set
Actual Time 8:28 AM EDT 6:37 PM EDT
Civil Twilight 7:57 AM EDT 7:08 PM EDT
Nautical Twilight 7:21 AM EDT 7:43 PM EDT
Astronomical Twilight 6:46 AM EDT 8:18 PM EDT
Moon 7:01 PM EDT (10/30) 9:19 AM EDT (10/30)
Length of Visible Light 11h 10m
Length of Day
10h 08m
Full, 99% of the Moon is Illuminated
Oct 30
Full
Nov 6
Last Quarter
Nov 13
New
Nov 20
First Quarter
Nov 28
Full

Hourly Weather History & Observations

Time (EDT) Temp. Windchill Dew Point Humidity Pressure Visibility Wind Dir Wind Speed Gust Speed Precip Events Conditions
12:16 AM 38.7 °F 28.0 °F 27.9 °F 65% 30.18 in 10.0 mi NNE 23.0 mph 28.8 mph N/A   Overcast
12:36 AM 38.7 °F 28.8 °F 28.0 °F 66% 30.18 in 10.0 mi NNE 19.6 mph 28.8 mph N/A   Overcast
12:56 AM 38.7 °F 28.6 °F 28.2 °F 66% 30.17 in 10.0 mi NNE 20.7 mph 29.9 mph N/A   Overcast
1:16 AM 38.7 °F 28.3 °F 28.2 °F 66% 30.16 in 10.0 mi NNE 21.9 mph 33.4 mph N/A   Overcast
1:36 AM 38.3 °F 27.8 °F 27.5 °F 65% 30.15 in 10.0 mi NNE 21.9 mph 32.2 mph N/A   Mostly Cloudy
1:56 AM 38.3 °F 27.8 °F 27.1 °F 64% 30.15 in 10.0 mi NNE 21.9 mph 31.1 mph N/A   Mostly Cloudy
2:16 AM 37.8 °F 27.4 °F 26.4 °F 64% 30.14 in 10.0 mi NNE 20.7 mph 31.1 mph N/A   Mostly Cloudy
2:35 AM 37.8 °F 26.8 °F 25.7 °F 62% 30.14 in 10.0 mi NNE 23.0 mph 33.4 mph N/A   Mostly Cloudy
2:56 AM 37.8 °F 28.0 °F 25.0 °F 60% 30.13 in 10.0 mi NNE 18.4 mph 32.2 mph N/A   Mostly Cloudy
3:16 AM 37.4 °F 26.1 °F 22.6 °F 55% 30.12 in 10.0 mi North 24.2 mph 32.2 mph N/A   Scattered Clouds
3:35 AM 37.0 °F 26.7 °F 19.9 °F 50% 30.12 in 10.0 mi North 19.6 mph 32.2 mph N/A   Clear
3:56 AM 36.7 °F 25.4 °F 19.0 °F 49% 30.11 in 10.0 mi NNE 23.0 mph 32.2 mph N/A   Clear
4:16 AM 36.5 °F 24.9 °F 23.0 °F 58% 30.11 in 10.0 mi NNE 24.2 mph 28.8 mph N/A   Scattered Clouds
4:35 AM 36.5 °F 24.4 °F 25.3 °F 64% 30.10 in 10.0 mi NNE 26.5 mph 33.4 mph N/A   Scattered Clouds
4:56 AM 36.1 °F 24.7 °F 26.2 °F 67% 30.09 in 10.0 mi NNE 23.0 mph 32.2 mph N/A   Scattered Clouds
5:16 AM 36.0 °F 23.5 °F 27.3 °F 71% 30.09 in 10.0 mi North 27.6 mph 34.5 mph N/A   Mostly Cloudy
5:35 AM 35.6 °F 24.8 °F 27.0 °F 71% 30.09 in 10.0 mi North 19.6 mph 34.5 mph N/A   Mostly Cloudy
5:56 AM 35.6 °F 23.2 °F 26.6 °F 70% 30.09 in 10.0 mi North 26.5 mph 32.2 mph N/A   Scattered Clouds
6:50 AM 35.6 °F 23.2 °F 24.8 °F 65% 30.08 in 10.0 mi North 26.5 mph 35.7 mph N/A   Scattered Clouds
7:50 AM 35.6 °F 23.4 °F 23.0 °F 60% 30.06 in 10.0 mi North 25.3 mph 38.0 mph N/A   Scattered Clouds
8:50 AM 33.8 °F 20.3 °F 23.0 °F 65% 30.05 in 10.0 mi North 28.8 mph 38.0 mph N/A   Overcast
9:55 AM 33.8 °F 20.1 °F 24.8 °F 70% 30.04 in 10.0 mi North 29.9 mph 38.0 mph N/A   Mostly Cloudy
10:50 AM 33.8 °F 21.3 °F 23.0 °F 65% 30.34 in 10.0 mi North 24.2 mph 40.3 mph N/A   Overcast
11:50 AM 35.6 °F 23.2 °F 23.0 °F 60% 30.02 in 10.0 mi North 26.5 mph 40.3 mph N/A   Mostly Cloudy
12:50 PM 35.6 °F 22.7 °F 24.8 °F 65% 30.00 in 10.0 mi North 28.8 mph 35.7 mph N/A   Overcast
1:50 PM 35.6 °F 22.3 °F 24.8 °F 65% 29.98 in 10.0 mi North 31.1 mph 38.0 mph N/A   Overcast
2:48 PM 35.6 °F 23.7 °F 24.8 °F 65% 29.96 in 10.0 mi North 24.2 mph 35.7 mph N/A   Overcast
3:50 PM 33.8 °F 21.0 °F 26.6 °F 75% 29.94 in 10.0 mi North 25.3 mph 38.0 mph N/A   Overcast
4:50 PM 35.6 °F 22.7 °F 24.8 °F 65% 29.94 in 10.0 mi North 28.8 mph 40.3 mph N/A   Overcast
5:30 PM 33.8 °F 21.6 °F 26.6 °F 75% 29.93 in 1.2 mi North 23.0 mph 41.4 mph N/A Snow Light Snow
5:55 PM 33.8 °F 21.3 °F 26.6 °F 75% 29.93 in 1.2 mi North 24.2 mph 35.7 mph N/A Snow Light Snow
6:50 PM 33.8 °F 21.0 °F 26.6 °F 75% 29.92 in 2.5 mi North 25.3 mph 33.4 mph N/A Snow Light Snow
7:50 PM 32.0 °F 18.1 °F 28.4 °F 87% 29.93 in 1.8 mi North 27.6 mph 33.4 mph N/A Snow Light Snow
8:50 PM 32.0 °F 18.6 °F 28.4 °F 87% 29.92 in 1.5 mi North 25.3 mph 36.8 mph N/A Snow Light Snow
9:50 PM 32.0 °F 18.6 °F 28.4 °F 87% 29.89 in 1.5 mi North 25.3 mph 34.5 mph N/A Snow Light Snow
10:16 PM 32.4 °F 19.4 °F 29.5 °F 89% 29.88 in 1.5 mi North 24.2 mph 35.7 mph N/A Snow Light Snow
10:36 PM 32.0 °F 18.6 °F 30.2 °F 93% 29.87 in 1.8 mi North 25.3 mph 38.0 mph N/A Snow Light Snow
10:56 PM 32.4 °F 19.1 °F 29.5 °F 89% 29.87 in 1.5 mi North 25.3 mph 31.1 mph N/A Snow Light Snow
11:16 PM 32.0 °F 20.1 °F 30.2 °F 93% 29.87 in 1.5 mi North 19.6 mph 27.6 mph N/A Snow Light Snow
11:36 PM 32.4 °F 19.7 °F 29.3 °F 88% 29.86 in 1.5 mi North 23.0 mph 32.2 mph N/A Snow Light Snow
11:56 PM 32.0 °F 20.1 °F 30.2 °F 93% 29.86 in 1.5 mi North 19.6 mph 32.2 mph N/A Snow Light Snow